Change the Weather History Date:

Sunday, March 31, 2013

  Actual Average Record
Temperature  
Mean Temperature 56 °F 53 °F  
Max Temperature 63 °F 64 °F 86 °F (1981)
Min Temperature 49 °F 42 °F 18 °F (1923)
Degree Days  
Heating Degree Days 9 13  
Month to date heating degree days 735 538  
Since 1 July heating degree days 3817 3779  
Cooling Degree Days 0 1  
Month to date cooling degree days 0 6  
Year to date cooling degree days 0 6  
Growing Degree Days 6 (Base 50)    
Moisture  
Dew Point 46 °F    
Average Humidity 76    
Maximum Humidity 100    
Minimum Humidity 51    
Precipitation  
Precipitation 0.05 in 0.14 in 2.04 in (1908)
Month to date precipitation 4.25 4.17  
Year to date precipitation 11.27 10.59  
Snow  
Snow 0.00 in 0.00 in 2.00 in (1887)
Month to date snowfall 1.4 1.4  
Since 1 July snowfall 9.5 12.4  
Snow Depth 0.00 in    
Sea Level Pressure  
Sea Level Pressure 29.86 in    
Wind  
Wind Speed 7 mph (West)    
Max Wind Speed 18 mph    
Max Gust Speed 24 mph    
Visibility 7 miles    
Events Rain    
T = Trace of Precipitation, MM = Missing Value Source: NWS Daily Summary

Daily Weather History Graph

Daily Weather History Graph

Search for Another Location

Airport or City:

Trip Planner

Search our weather history database for the weather conditions in past years. The results will help you decide how hot, cold, wet, or windy it might be!

Date:

Astronomy

Mar. 31, 2013 Rise Set
Actual Time 7:29 AM EDT 8:05 PM EDT
Civil Twilight 7:02 AM EDT 8:32 PM EDT
Nautical Twilight 6:31 AM EDT 9:03 PM EDT
Astronomical Twilight 5:59 AM EDT 9:35 PM EDT
Moon 12:06 AM EDT (3/31) 10:20 AM EDT (3/31)
Length of Visible Light 13h 29m
Length of Day
12h 36m
Waning Gibbous, 78% of the Moon is Illuminated
Mar 31
Waning Gibbous
Apr 3
Last Quarter
Apr 10
New
Apr 18
First Quarter
Apr 25
Full

Hourly Weather History & Observations

Time (EDT) Temp. Dew Point Humidity Pressure Visibility Wind Dir Wind Speed Gust Speed Precip Events Conditions
12:56 AM 52.0 °F 45.0 °F 77% 29.92 in 10.0 mi SSE 4.6 mph - 0.00 in Rain Light Rain
1:56 AM 51.1 °F 46.0 °F 83% 29.90 in 8.0 mi Calm Calm - 0.02 in Rain Light Rain
2:56 AM 50.0 °F 46.9 °F 89% 29.88 in 7.0 mi SE 3.5 mph - 0.01 in Rain Light Rain
3:56 AM 50.0 °F 46.9 °F 89% 29.85 in 7.0 mi Calm Calm - 0.01 in Rain Light Rain
4:56 AM 50.0 °F 48.0 °F 93% 29.83 in 6.0 mi Calm Calm - 0.00 in   Overcast
5:09 AM 50.0 °F 48.2 °F 94% 29.84 in 5.0 mi NNW 5.8 mph - 0.00 in Rain Light Rain
5:56 AM 50.0 °F 48.0 °F 93% 29.83 in 4.0 mi NNW 4.6 mph - 0.00 in   Light Drizzle
6:27 AM 50.0 °F 46.4 °F 87% 29.83 in 5.0 mi NNW 5.8 mph - 0.00 in   Light Drizzle
6:46 AM 48.2 °F 48.2 °F 100% 29.84 in 2.5 mi NNW 5.8 mph - 0.00 in   Light Drizzle
6:56 AM 48.9 °F 48.0 °F 97% 29.84 in 2.5 mi NNW 5.8 mph - 0.00 in   Light Drizzle
7:56 AM 48.9 °F 48.0 °F 97% 29.86 in 2.5 mi West 3.5 mph - 0.01 in   Light Drizzle
8:17 AM 48.2 °F 46.4 °F 93% 29.86 in 1.8 mi West 5.8 mph - 0.00 in   Light Drizzle
8:19 AM 48.2 °F 46.4 °F 93% 29.86 in 1.8 mi West 5.8 mph - 0.00 in   Light Drizzle
8:24 AM 48.2 °F 48.2 °F 100% 29.87 in 2.0 mi West 8.1 mph - 0.00 in   Light Drizzle
8:27 AM 48.2 °F 48.2 °F 100% 29.87 in 2.5 mi West 8.1 mph - 0.00 in   Light Drizzle
8:36 AM 48.2 °F 46.4 °F 93% 29.87 in 3.0 mi West 8.1 mph - 0.00 in   Overcast
8:56 AM 48.9 °F 46.9 °F 93% 29.88 in 4.0 mi West 6.9 mph - 0.00 in   Overcast
9:56 AM 50.0 °F 48.0 °F 93% 29.89 in 6.0 mi West 6.9 mph - N/A   Overcast
10:25 AM 50.0 °F 48.2 °F 94% 29.89 in 8.0 mi West 8.1 mph - N/A   Overcast
10:56 AM 51.1 °F 46.9 °F 86% 29.88 in 8.0 mi West 8.1 mph - N/A   Overcast
11:56 AM 52.0 °F 48.0 °F 86% 29.90 in 9.0 mi West 9.2 mph - N/A   Overcast
12:21 PM 53.6 °F 46.4 °F 77% 29.90 in 9.0 mi West 8.1 mph - N/A   Overcast
12:56 PM 53.1 °F 46.9 °F 80% 29.91 in 9.0 mi West 12.7 mph - N/A   Overcast
1:56 PM 54.0 °F 48.0 °F 80% 29.89 in 8.0 mi West 10.4 mph - N/A   Overcast
2:56 PM 55.9 °F 46.9 °F 72% 29.86 in 9.0 mi WSW 9.2 mph - N/A   Mostly Cloudy
3:56 PM 60.1 °F 45.0 °F 57% 29.85 in 10.0 mi WSW 12.7 mph - N/A   Scattered Clouds
4:56 PM 61.0 °F 44.1 °F 54% 29.84 in 10.0 mi West 12.7 mph - N/A   Mostly Cloudy
5:56 PM 59.0 °F 42.1 °F 53% 29.84 in 10.0 mi West 11.5 mph - N/A   Mostly Cloudy
6:56 PM 61.0 °F 42.1 °F 50% 29.86 in 10.0 mi West 12.7 mph - N/A   Mostly Cloudy
7:56 PM 57.0 °F 42.1 °F 57% 29.85 in 10.0 mi WSW 6.9 mph - N/A   Partly Cloudy
8:56 PM 55.0 °F 42.1 °F 62% 29.85 in 10.0 mi WSW 4.6 mph - N/A   Partly Cloudy
9:56 PM 54.0 °F 43.0 °F 66% 29.86 in 10.0 mi SW 5.8 mph - N/A   Clear
10:56 PM 53.1 °F 43.0 °F 69% 29.86 in 10.0 mi SW 4.6 mph - N/A   Clear
11:56 PM 53.1 °F 43.0 °F 69% 29.85 in 10.0 mi SSW 4.6 mph - N/A   Clear